Time,TemperatureF,DewpointF,PressureIn,WindDirection,WindDirectionDegrees,WindSpeedMPH,WindSpeedGustMPH,Humidity,HourlyPrecipIn,Conditions,Clouds,dailyrainin,SoftwareType,DateUTC
2013-11-06 00:01:00,27.5,8.8,30.17,NE,45,0.0,0.0,45,0.00,,,0.00,WUHU21623XXSP,2013-11-06 08:01:00,
2013-11-06 00:10:00,27.3,9.1,30.18,NE,45,0.0,0.0,46,0.00,,,0.00,WUHU21623XXSP,2013-11-06 08:10:00,
2013-11-06 00:16:00,27.3,9.1,30.18,NE,45,0.0,0.0,46,0.00,,,0.00,WUHU21623XXSP,2013-11-06 08:16:00,
2013-11-06 00:22:00,27.1,9.0,30.18,NE,45,0.0,0.0,46,0.00,,,0.00,WUHU21623XXSP,2013-11-06 08:22:00,
2013-11-06 00:27:00,27.1,9.0,30.18,NE,45,0.0,0.0,46,0.00,,,0.00,WUHU21623XXSP,2013-11-06 08:27:00,
2013-11-06 00:32:00,27.1,9.0,30.19,NE,45,0.0,0.0,46,0.00,,,0.00,WUHU21623XXSP,2013-11-06 08:32:00,
2013-11-06 00:37:00,27.1,9.0,30.18,NE,45,0.0,0.0,46,0.00,,,0.00,WUHU21623XXSP,2013-11-06 08:37:00,
2013-11-06 00:42:00,27.0,8.8,30.18,NE,45,0.0,0.0,46,0.00,,,0.00,WUHU21623XXSP,2013-11-06 08:42:00,
2013-11-06 00:52:00,26.8,9.1,30.18,WSW,247,0.0,0.0,47,0.00,,,0.00,WUHU21623XXSP,2013-11-06 08:52:00,
2013-11-06 00:57:00,26.6,8.9,30.19,WSW,247,0.0,0.0,47,0.00,,,0.00,WUHU21623XXSP,2013-11-06 08:57:00,
2013-11-06 01:02:00,26.6,8.9,30.18,WSW,247,0.0,0.0,47,0.00,,,0.00,WUHU21623XXSP,2013-11-06 09:02:00,
2013-11-06 01:07:00,26.4,8.8,30.18,WSW,247,0.0,0.0,47,0.00,,,0.00,WUHU21623XXSP,2013-11-06 09:07:00,
2013-11-06 01:12:00,26.4,8.8,30.19,SW,225,0.0,0.0,47,0.00,,,0.00,WUHU21623XXSP,2013-11-06 09:12:00,
2013-11-06 01:18:00,26.4,8.8,30.18,SW,225,0.0,0.0,47,0.00,,,0.00,WUHU21623XXSP,2013-11-06 09:18:00,
2013-11-06 01:23:00,26.4,8.8,30.19,SW,225,0.0,0.0,47,0.00,,,0.00,WUHU21623XXSP,2013-11-06 09:23:00,
2013-11-06 01:28:00,26.2,8.6,30.18,SW,225,0.0,0.0,47,0.00,,,0.00,WUHU21623XXSP,2013-11-06 09:28:00,
2013-11-06 01:33:00,26.1,8.5,30.18,SW,225,0.0,0.0,47,0.00,,,0.00,WUHU21623XXSP,2013-11-06 09:33:00,
2013-11-06 01:38:00,25.9,8.3,30.19,SW,225,0.0,0.0,47,0.00,,,0.00,WUHU21623XXSP,2013-11-06 09:38:00,
2013-11-06 01:43:00,25.9,8.8,30.19,SW,225,0.0,0.0,48,0.00,,,0.00,WUHU21623XXSP,2013-11-06 09:43:00,
2013-11-06 01:48:00,25.7,8.6,30.19,SW,225,0.0,0.0,48,0.00,,,0.00,WUHU21623XXSP,2013-11-06 09:48:00,
2013-11-06 01:54:00,25.5,8.5,30.19,SW,225,0.0,0.0,48,0.00,,,0.00,WUHU21623XXSP,2013-11-06 09:54:00,
2013-11-06 01:59:00,25.5,8.5,30.19,SW,225,0.0,0.0,48,0.00,,,0.00,WUHU21623XXSP,2013-11-06 09:59:00,
2013-11-06 02:04:00,25.5,8.5,30.19,SW,225,0.0,0.0,48,0.00,,,0.00,WUHU21623XXSP,2013-11-06 10:04:00,
2013-11-06 02:16:00,25.2,8.1,30.18,NE,45,0.0,0.0,48,0.00,,,0.00,WUHU21623XXSP,2013-11-06 10:16:00,
2013-11-06 02:21:00,25.2,8.6,30.18,NE,45,0.0,0.0,49,0.00,,,0.00,WUHU21623XXSP,2013-11-06 10:21:00,
2013-11-06 02:26:00,25.2,8.6,30.18,NE,45,0.0,0.0,49,0.00,,,0.00,WUHU21623XXSP,2013-11-06 10:26:00,
2013-11-06 02:31:00,25.0,8.5,30.18,East,90,0.0,0.0,49,0.00,,,0.00,WUHU21623XXSP,2013-11-06 10:31:00,
2013-11-06 02:37:00,24.8,8.3,30.19,East,90,0.0,0.0,49,0.00,,,0.00,WUHU21623XXSP,2013-11-06 10:37:00,
2013-11-06 02:44:00,24.6,8.6,30.19,East,90,0.0,0.0,50,0.00,,,0.00,WUHU21623XXSP,2013-11-06 10:44:00,
2013-11-06 02:52:00,24.6,8.6,30.19,East,90,0.0,0.0,50,0.00,,,0.00,WUHU21623XXSP,2013-11-06 10:52:00,
2013-11-06 02:57:00,24.6,8.6,30.19,East,90,0.0,0.0,50,0.00,,,0.00,WUHU21623XXSP,2013-11-06 10:57:00,
2013-11-06 03:02:00,24.4,8.5,30.19,East,90,0.0,0.0,50,0.00,,,0.00,WUHU21623XXSP,2013-11-06 11:02:00,
2013-11-06 03:07:00,24.4,8.5,30.19,East,90,0.0,0.0,50,0.00,,,0.00,WUHU21623XXSP,2013-11-06 11:07:00,
2013-11-06 03:12:00,24.1,8.1,30.19,NE,45,0.0,0.0,50,0.00,,,0.00,WUHU21623XXSP,2013-11-06 11:12:00,
2013-11-06 03:18:00,24.1,8.1,30.18,ENE,67,0.0,0.0,50,0.00,,,0.00,WUHU21623XXSP,2013-11-06 11:18:00,
2013-11-06 03:23:00,23.9,8.0,30.19,NE,45,0.0,0.0,50,0.00,,,0.00,WUHU21623XXSP,2013-11-06 11:23:00,
2013-11-06 03:28:00,23.9,8.0,30.19,NE,45,0.0,0.0,50,0.00,,,0.00,WUHU21623XXSP,2013-11-06 11:28:00,
2013-11-06 03:33:00,23.9,8.0,30.19,WNW,292,0.0,0.0,50,0.00,,,0.00,WUHU21623XXSP,2013-11-06 11:33:00,
2013-11-06 03:38:00,23.7,7.8,30.19,NW,315,0.0,0.0,50,0.00,,,0.00,WUHU21623XXSP,2013-11-06 11:38:00,
2013-11-06 03:43:00,23.7,7.8,30.19,NNW,337,0.0,0.0,50,0.00,,,0.00,WUHU21623XXSP,2013-11-06 11:43:00,
2013-11-06 03:48:00,23.7,7.8,30.19,NNW,337,0.0,0.0,50,0.00,,,0.00,WUHU21623XXSP,2013-11-06 11:48:00,
2013-11-06 03:54:00,23.5,8.0,30.19,NNW,337,0.0,0.0,51,0.00,,,0.00,WUHU21623XXSP,2013-11-06 11:54:00,
2013-11-06 03:59:00,23.5,8.4,30.19,NNW,337,0.0,0.0,52,0.00,,,0.00,WUHU21623XXSP,2013-11-06 11:59:00,
2013-11-06 04:04:00,23.5,8.4,30.19,NNW,337,0.0,0.0,52,0.00,,,0.00,WUHU21623XXSP,2013-11-06 12:04:00,
2013-11-06 04:09:00,23.5,8.4,30.19,NNE,22,0.0,0.0,52,0.00,,,0.00,WUHU21623XXSP,2013-11-06 12:09:00,
2013-11-06 04:14:00,23.5,8.4,30.19,SSW,202,0.0,0.0,52,0.00,,,0.00,WUHU21623XXSP,2013-11-06 12:14:00,
2013-11-06 04:20:00,23.5,8.4,30.19,WNW,292,0.0,0.0,52,0.00,,,0.00,WUHU21623XXSP,2013-11-06 12:20:00,
2013-11-06 04:26:00,23.5,8.4,30.20,WNW,292,0.0,0.0,52,0.00,,,0.00,WUHU21623XXSP,2013-11-06 12:26:00,
2013-11-06 04:31:00,23.5,8.4,30.19,WNW,292,0.0,0.0,52,0.00,,,0.00,WUHU21623XXSP,2013-11-06 12:31:00,
2013-11-06 04:37:00,23.5,8.4,30.19,WNW,292,0.0,0.0,52,0.00,,,0.00,WUHU21623XXSP,2013-11-06 12:37:00,
2013-11-06 04:42:00,23.5,8.4,30.20,West,270,0.0,0.0,52,0.00,,,0.00,WUHU21623XXSP,2013-11-06 12:42:00,
2013-11-06 04:47:00,23.4,8.3,30.20,West,270,0.0,0.0,52,0.00,,,0.00,WUHU21623XXSP,2013-11-06 12:47:00,
2013-11-06 04:52:00,23.4,8.7,30.20,West,270,0.0,0.0,53,0.00,,,0.00,WUHU21623XXSP,2013-11-06 12:52:00,
2013-11-06 04:57:00,23.4,8.7,30.20,West,270,0.0,0.0,53,0.00,,,0.00,WUHU21623XXSP,2013-11-06 12:57:00,
2013-11-06 05:02:00,23.4,8.7,30.20,West,270,0.0,0.0,53,0.00,,,0.00,WUHU21623XXSP,2013-11-06 13:02:00,
2013-11-06 05:07:00,23.4,8.7,30.20,East,90,0.0,0.0,53,0.00,,,0.00,WUHU21623XXSP,2013-11-06 13:07:00,
2013-11-06 05:12:00,23.4,8.7,30.20,ESE,112,0.0,0.0,53,0.00,,,0.00,WUHU21623XXSP,2013-11-06 13:12:00,
2013-11-06 05:17:00,23.4,9.1,30.21,ESE,112,0.0,0.0,54,0.00,,,0.00,WUHU21623XXSP,2013-11-06 13:17:00,
2013-11-06 05:24:00,23.5,9.2,30.21,ENE,67,0.0,0.0,54,0.00,,,0.00,WUHU21623XXSP,2013-11-06 13:24:00,
2013-11-06 05:29:00,23.5,9.1,30.21,NE,45,0.0,0.0,54,0.00,,,0.00,WUHU21623XXSP,2013-11-06 13:29:00,
2013-11-06 05:34:00,23.4,9.1,30.20,NE,45,0.0,0.0,54,0.00,,,0.00,WUHU21623XXSP,2013-11-06 13:34:00,
2013-11-06 05:41:00,23.4,9.5,30.21,ENE,67,0.0,0.0,55,0.00,,,0.00,WUHU21623XXSP,2013-11-06 13:41:00,
2013-11-06 05:50:00,23.4,9.5,30.21,NNE,22,0.0,0.0,55,0.00,,,0.00,WUHU21623XXSP,2013-11-06 13:50:00,
2013-11-06 05:55:00,23.4,9.5,30.21,NNE,22,0.0,0.0,55,0.00,,,0.00,WUHU21623XXSP,2013-11-06 13:55:00,
2013-11-06 06:00:00,23.4,9.5,30.22,WNW,292,0.0,0.0,55,0.00,,,0.00,WUHU21623XXSP,2013-11-06 14:00:00,
2013-11-06 06:05:00,23.4,9.5,30.22,WNW,292,0.0,0.0,55,0.00,,,0.00,WUHU21623XXSP,2013-11-06 14:05:00,
2013-11-06 06:10:00,23.2,9.3,30.22,WNW,292,0.0,0.0,55,0.00,,,0.00,WUHU21623XXSP,2013-11-06 14:10:00,
2013-11-06 06:16:00,23.2,9.3,30.22,WNW,292,0.0,0.0,55,0.00,,,0.00,WUHU21623XXSP,2013-11-06 14:16:00,
2013-11-06 06:22:00,23.0,9.1,30.22,SSE,157,0.0,0.0,55,0.00,,,0.00,WUHU21623XXSP,2013-11-06 14:22:00,
2013-11-06 06:27:00,23.0,9.1,30.22,SSE,157,0.0,0.0,55,0.00,,,0.00,WUHU21623XXSP,2013-11-06 14:27:00,
2013-11-06 06:33:00,22.8,9.0,30.22,SSE,157,0.0,0.0,55,0.00,,,0.00,WUHU21623XXSP,2013-11-06 14:33:00,
2013-11-06 06:38:00,22.8,9.0,30.22,SSE,157,0.0,0.0,55,0.00,,,0.00,WUHU21623XXSP,2013-11-06 14:38:00,
2013-11-06 06:50:00,22.5,8.6,30.22,ESE,112,0.0,0.0,55,0.00,,,0.00,WUHU21623XXSP,2013-11-06 14:50:00,
2013-11-06 06:55:00,22.5,8.6,30.22,ESE,112,0.0,0.0,55,0.00,,,0.00,WUHU21623XXSP,2013-11-06 14:55:00,
2013-11-06 07:00:00,22.3,8.5,30.22,ESE,112,0.0,0.0,55,0.00,,,0.00,WUHU21623XXSP,2013-11-06 15:00:00,
2013-11-06 07:05:00,22.3,8.9,30.23,ESE,112,0.0,0.0,56,0.00,,,0.00,WUHU21623XXSP,2013-11-06 15:05:00,
2013-11-06 07:10:00,22.1,8.7,30.23,SE,135,0.0,0.0,56,0.00,,,0.00,WUHU21623XXSP,2013-11-06 15:10:00,
2013-11-06 07:16:00,22.3,9.2,30.24,SE,135,0.0,0.0,57,0.00,,,0.00,WUHU21623XXSP,2013-11-06 15:16:00,
2013-11-06 07:21:00,22.5,9.4,30.24,SE,135,0.0,0.0,57,0.00,,,0.00,WUHU21623XXSP,2013-11-06 15:21:00,
2013-11-06 07:26:00,22.6,9.6,30.24,SE,135,0.0,0.0,57,0.00,,,0.00,WUHU21623XXSP,2013-11-06 15:26:00,
2013-11-06 07:33:00,23.0,10.3,30.23,SSW,202,2.0,2.0,58,0.00,,,0.00,WUHU21623XXSP,2013-11-06 15:33:00,
2013-11-06 07:38:00,23.5,10.5,30.23,SSW,202,0.0,2.0,58,0.00,,,0.00,WUHU21623XXSP,2013-11-06 15:38:00,
2013-11-06 07:43:00,24.1,11.8,30.24,South,180,0.0,0.0,59,0.00,,,0.00,WUHU21623XXSP,2013-11-06 15:43:00,
2013-11-06 07:48:00,24.6,12.3,30.24,South,180,0.0,0.0,59,0.00,,,0.00,WUHU21623XXSP,2013-11-06 15:48:00,
2013-11-06 07:55:00,25.5,13.6,30.24,South,180,0.0,0.0,60,0.00,,,0.00,WUHU21623XXSP,2013-11-06 15:55:00,
2013-11-06 08:00:00,26.1,14.1,30.24,West,270,0.0,0.0,60,0.00,,,0.00,WUHU21623XXSP,2013-11-06 16:00:00,
2013-11-06 08:05:00,27.1,15.1,30.24,West,270,0.0,0.0,61,0.00,,,0.00,WUHU21623XXSP,2013-11-06 16:05:00,
2013-11-06 08:13:00,28.9,17.5,30.24,South,180,0.0,0.0,62,0.00,,,0.00,WUHU21623XXSP,2013-11-06 16:13:00,
2013-11-06 08:19:00,30.0,18.0,30.24,ESE,112,0.0,0.0,62,0.00,,,0.00,WUHU21623XXSP,2013-11-06 16:19:00,
2013-11-06 08:24:00,31.3,19.8,30.24,SE,135,0.0,0.0,62,0.00,,,0.00,WUHU21623XXSP,2013-11-06 16:24:00,
2013-11-06 08:31:00,33.8,20.9,30.24,WNW,292,0.0,0.0,59,0.00,,,0.00,WUHU21623XXSP,2013-11-06 16:31:00,
2013-11-06 08:36:00,34.9,21.6,30.24,SSW,202,0.0,0.0,58,0.00,,,0.00,WUHU21623XXSP,2013-11-06 16:36:00,
2013-11-06 08:41:00,36.1,22.0,30.24,NNW,337,0.0,0.0,57,0.00,,,0.00,WUHU21623XXSP,2013-11-06 16:41:00,
2013-11-06 08:46:00,36.9,22.2,30.24,East,90,0.0,0.0,55,0.00,,,0.00,WUHU21623XXSP,2013-11-06 16:46:00,
2013-11-06 08:51:00,37.6,22.4,30.24,SSE,157,0.0,0.0,54,0.00,,,0.00,WUHU21623XXSP,2013-11-06 16:51:00,
2013-11-06 08:56:00,38.5,22.7,30.24,SSE,157,0.0,0.0,52,0.00,,,0.00,WUHU21623XXSP,2013-11-06 16:56:00,
2013-11-06 09:01:00,39.0,22.4,30.24,ESE,112,0.0,0.0,51,0.00,,,0.00,WUHU21623XXSP,2013-11-06 17:01:00,
2013-11-06 09:06:00,39.6,22.9,30.24,West,270,0.0,0.0,51,0.00,,,0.00,WUHU21623XXSP,2013-11-06 17:06:00,
2013-11-06 09:11:00,40.3,23.1,30.23,SE,135,0.0,0.0,50,0.00,,,0.00,WUHU21623XXSP,2013-11-06 17:11:00,
2013-11-06 09:18:00,40.8,22.5,30.22,SSE,157,0.0,0.0,48,0.00,,,0.00,WUHU21623XXSP,2013-11-06 17:18:00,
2013-11-06 09:23:00,41.2,22.8,30.22,NW,315,0.0,0.0,48,0.00,,,0.00,WUHU21623XXSP,2013-11-06 17:23:00,
2013-11-06 09:28:00,41.5,23.2,30.22,NE,45,0.0,0.0,48,0.00,,,0.00,WUHU21623XXSP,2013-11-06 17:28:00,
2013-11-06 09:33:00,42.1,23.6,30.22,NNE,22,0.0,0.0,47,0.00,,,0.00,WUHU21623XXSP,2013-11-06 17:33:00,
2013-11-06 09:38:00,42.4,23.5,30.22,NW,315,0.0,0.0,47,0.00,,,0.00,WUHU21623XXSP,2013-11-06 17:38:00,
2013-11-06 09:48:00,43.3,23.8,30.22,West,270,0.0,0.0,46,0.00,,,0.00,WUHU21623XXSP,2013-11-06 17:48:00,
2013-11-06 09:56:00,44.4,24.8,30.22,SSE,157,0.0,0.0,46,0.00,,,0.00,WUHU21623XXSP,2013-11-06 17:56:00,
2013-11-06 10:01:00,45.5,24.9,30.22,SSW,202,0.0,0.0,44,0.00,,,0.00,WUHU21623XXSP,2013-11-06 18:01:00,
2013-11-06 10:06:00,45.7,24.9,30.22,SSE,157,0.0,0.0,44,0.00,,,0.00,WUHU21623XXSP,2013-11-06 18:06:00,
2013-11-06 10:11:00,46.6,25.1,30.21,SE,135,0.0,0.0,43,0.00,,,0.00,WUHU21623XXSP,2013-11-06 18:11:00,
2013-11-06 10:16:00,46.9,25.5,30.21,South,180,0.0,0.0,43,0.00,,,0.00,WUHU21623XXSP,2013-11-06 18:16:00,
2013-11-06 10:22:00,47.7,25.6,30.21,WNW,292,0.0,0.0,42,0.00,,,0.00,WUHU21623XXSP,2013-11-06 18:22:00,
2013-11-06 10:27:00,48.6,25.6,30.21,SE,135,0.0,0.0,42,0.00,,,0.00,WUHU21623XXSP,2013-11-06 18:27:00,
2013-11-06 10:33:00,49.3,27.1,30.20,SSE,157,0.0,0.0,42,0.00,,,0.00,WUHU21623XXSP,2013-11-06 18:33:00,
2013-11-06 10:38:00,50.4,27.5,30.20,SSW,202,0.0,0.0,42,0.00,,,0.00,WUHU21623XXSP,2013-11-06 18:38:00,
2013-11-06 10:45:00,52.0,27.7,30.20,SSE,157,1.8,1.8,39,0.00,,,0.00,WUHU21623XXSP,2013-11-06 18:45:00,
2013-11-06 10:54:00,53.2,28.1,30.20,WNW,292,0.0,1.8,38,0.00,,,0.00,WUHU21623XXSP,2013-11-06 18:54:00,
2013-11-06 11:00:00,53.6,28.5,30.19,SE,135,0.0,0.0,38,0.00,,,0.00,WUHU21623XXSP,2013-11-06 19:00:00,
2013-11-06 11:07:00,54.1,28.3,30.19,SE,135,0.0,0.0,37,0.00,,,0.00,WUHU21623XXSP,2013-11-06 19:07:00,
2013-11-06 11:12:00,54.5,28.4,30.19,SE,135,0.0,0.0,37,0.00,,,0.00,WUHU21623XXSP,2013-11-06 19:12:00,
2013-11-06 11:20:00,55.6,28.8,30.19,NE,45,0.0,0.0,36,0.00,,,0.00,WUHU21623XXSP,2013-11-06 19:20:00,
2013-11-06 11:26:00,56.8,29.2,30.19,NW,315,0.0,0.0,35,0.00,,,0.00,WUHU21623XXSP,2013-11-06 19:26:00,
2013-11-06 11:33:00,57.6,29.2,30.19,SSE,157,0.0,0.0,34,0.00,,,0.00,WUHU21623XXSP,2013-11-06 19:33:00,
2013-11-06 11:38:00,58.1,29.7,30.19,NNE,22,0.0,0.0,34,0.00,,,0.00,WUHU21623XXSP,2013-11-06 19:38:00,
2013-11-06 11:45:00,59.5,29.9,30.18,SW,225,0.0,0.0,33,0.00,,,0.00,WUHU21623XXSP,2013-11-06 19:45:00,
2013-11-06 11:50:00,60.1,30.7,30.18,WNW,292,3.4,3.4,33,0.00,,,0.00,WUHU21623XXSP,2013-11-06 19:50:00,
2013-11-06 11:55:00,61.0,30.7,30.18,SSE,157,0.0,3.4,32,0.00,,,0.00,WUHU21623XXSP,2013-11-06 19:55:00,
2013-11-06 12:03:00,61.9,30.1,30.17,WNW,292,0.0,0.0,30,0.00,,,0.00,WUHU21623XXSP,2013-11-06 20:03:00,
2013-11-06 12:08:00,62.2,29.4,30.17,WSW,247,0.0,0.0,29,0.00,,,0.00,WUHU21623XXSP,2013-11-06 20:08:00,
2013-11-06 12:13:00,62.2,29.4,30.17,NNW,337,0.0,0.0,29,0.00,,,0.00,WUHU21623XXSP,2013-11-06 20:13:00,
2013-11-06 12:18:00,61.9,29.1,30.16,WSW,247,0.0,0.0,29,0.00,,,0.00,WUHU21623XXSP,2013-11-06 20:18:00,
2013-11-06 12:28:00,61.5,27.8,30.16,WNW,292,2.5,2.5,28,0.00,,,0.00,WUHU21623XXSP,2013-11-06 20:28:00,
2013-11-06 12:33:00,61.7,28.0,30.16,WNW,292,0.9,2.5,28,0.00,,,0.00,WUHU21623XXSP,2013-11-06 20:33:00,
2013-11-06 12:38:00,61.7,28.0,30.16,WNW,292,1.8,1.8,28,0.00,,,0.00,WUHU21623XXSP,2013-11-06 20:38:00,
2013-11-06 12:43:00,62.2,28.5,30.16,West,270,6.5,6.5,28,0.00,,,0.00,WUHU21623XXSP,2013-11-06 20:43:00,
2013-11-06 12:48:00,62.6,28.6,30.16,WNW,292,2.0,6.5,27,0.00,,,0.00,WUHU21623XXSP,2013-11-06 20:48:00,
2013-11-06 12:56:00,63.1,27.3,30.15,NW,315,2.7,2.7,26,0.00,,,0.00,WUHU21623XXSP,2013-11-06 20:56:00,
2013-11-06 13:01:00,63.3,27.5,30.15,NW,315,0.9,2.7,26,0.00,,,0.00,WUHU21623XXSP,2013-11-06 21:01:00,
2013-11-06 13:06:00,63.7,26.8,30.15,NW,315,2.9,2.9,25,0.00,,,0.00,WUHU21623XXSP,2013-11-06 21:06:00,
2013-11-06 13:13:00,64.0,27.1,30.14,NW,315,4.3,4.3,25,0.00,,,0.00,WUHU21623XXSP,2013-11-06 21:13:00,
2013-11-06 13:20:00,64.0,27.1,30.14,NNE,22,4.3,4.3,25,0.00,,,0.00,WUHU21623XXSP,2013-11-06 21:20:00,
2013-11-06 13:25:00,64.2,27.2,30.14,NW,315,1.8,4.3,25,0.00,,,0.00,WUHU21623XXSP,2013-11-06 21:25:00,
2013-11-06 13:32:00,64.2,27.2,30.14,NW,315,3.8,3.8,25,0.00,,,0.00,WUHU21623XXSP,2013-11-06 21:32:00,
2013-11-06 13:37:00,64.6,27.6,30.14,North,0,4.9,4.9,25,0.00,,,0.00,WUHU21623XXSP,2013-11-06 21:37:00,
2013-11-06 13:42:00,64.9,26.9,30.14,WNW,292,4.5,4.9,24,0.00,,,0.00,WUHU21623XXSP,2013-11-06 21:42:00,
2013-11-06 13:49:00,65.3,27.2,30.14,NNW,337,4.5,4.5,24,0.00,,,0.00,WUHU21623XXSP,2013-11-06 21:49:00,
2013-11-06 13:56:00,65.1,27.0,30.14,WNW,292,5.8,5.8,24,0.00,,,0.00,WUHU21623XXSP,2013-11-06 21:56:00,
2013-11-06 14:01:00,64.8,26.7,30.14,WNW,292,3.1,5.8,24,0.00,,,0.00,WUHU21623XXSP,2013-11-06 22:01:00,
2013-11-06 14:07:00,64.2,26.3,30.14,NW,315,11.2,11.2,24,0.00,,,0.00,WUHU21623XXSP,2013-11-06 22:07:00,
2013-11-06 14:13:00,63.3,25.5,30.14,NW,315,7.6,11.2,24,0.00,,,0.00,WUHU21623XXSP,2013-11-06 22:13:00,
2013-11-06 14:19:00,62.6,24.9,30.13,West,270,4.5,7.6,24,0.00,,,0.00,WUHU21623XXSP,2013-11-06 22:19:00,
2013-11-06 14:24:00,62.2,24.7,30.13,WNW,292,11.9,11.9,24,0.00,,,0.00,WUHU21623XXSP,2013-11-06 22:24:00,
2013-11-06 14:29:00,61.9,25.3,30.13,WNW,292,6.7,11.9,25,0.00,,,0.00,WUHU21623XXSP,2013-11-06 22:29:00,
2013-11-06 14:34:00,61.7,25.1,30.13,WNW,292,4.9,6.7,25,0.00,,,0.00,WUHU21623XXSP,2013-11-06 22:34:00,
2013-11-06 14:39:00,61.5,25.0,30.13,West,270,7.6,7.6,25,0.00,,,0.00,WUHU21623XXSP,2013-11-06 22:39:00,
2013-11-06 14:47:00,61.2,24.7,30.13,WNW,292,7.6,7.6,25,0.00,,,0.00,WUHU21623XXSP,2013-11-06 22:47:00,
2013-11-06 14:54:00,61.0,24.5,30.12,NW,315,3.8,7.6,25,0.00,,,0.00,WUHU21623XXSP,2013-11-06 22:54:00,
2013-11-06 15:00:00,60.6,25.1,30.12,WNW,292,5.4,5.4,26,0.00,,,0.00,WUHU21623XXSP,2013-11-06 23:00:00,
2013-11-06 15:06:00,60.4,25.0,30.13,WNW,292,4.0,5.4,26,0.00,,,0.00,WUHU21623XXSP,2013-11-06 23:06:00,
2013-11-06 15:13:00,60.3,24.8,30.13,NW,315,3.6,4.0,26,0.00,,,0.00,WUHU21623XXSP,2013-11-06 23:13:00,
2013-11-06 15:19:00,60.1,24.7,30.13,NNW,337,6.9,6.9,26,0.00,,,0.00,WUHU21623XXSP,2013-11-06 23:19:00,
2013-11-06 15:28:00,59.9,24.5,30.12,NW,315,3.8,6.9,26,0.00,,,0.00,WUHU21623XXSP,2013-11-06 23:28:00,
2013-11-06 15:38:00,59.5,25.2,30.12,NW,315,6.9,6.9,27,0.00,,,0.00,WUHU21623XXSP,2013-11-06 23:38:00,
2013-11-06 15:43:00,59.5,25.2,30.13,WNW,292,7.4,7.4,27,0.00,,,0.00,WUHU21623XXSP,2013-11-06 23:43:00,
2013-11-06 15:48:00,59.4,25.1,30.12,NNW,337,9.4,9.4,27,0.00,,,0.00,WUHU21623XXSP,2013-11-06 23:48:00,
2013-11-06 15:53:00,59.0,24.8,30.12,NNW,337,5.4,9.4,27,0.00,,,0.00,WUHU21623XXSP,2013-11-06 23:53:00,
2013-11-06 15:59:00,58.8,24.6,30.12,West,270,6.5,6.5,27,0.00,,,0.00,WUHU21623XXSP,2013-11-06 23:59:00,
2013-11-06 16:08:00,58.3,24.3,30.12,NW,315,4.9,4.9,27,0.00,,,0.00,WUHU21623XXSP,2013-11-07 00:08:00,
2013-11-06 16:19:00,57.9,23.8,30.12,WNW,292,5.4,5.4,27,0.00,,,0.00,WUHU21623XXSP,2013-11-07 00:19:00,
2013-11-06 16:24:00,57.7,23.7,30.12,NW,315,4.0,5.4,27,0.00,,,0.00,WUHU21623XXSP,2013-11-07 00:24:00,
2013-11-06 16:32:00,57.0,24.0,30.12,WNW,292,4.3,4.3,28,0.00,,,0.00,WUHU21623XXSP,2013-11-07 00:32:00,
2013-11-06 16:37:00,56.8,23.8,30.12,WNW,292,2.9,4.3,28,0.00,,,0.00,WUHU21623XXSP,2013-11-07 00:37:00,
2013-11-06 16:42:00,56.3,23.4,30.12,WNW,292,4.0,4.0,28,0.00,,,0.00,WUHU21623XXSP,2013-11-07 00:42:00,
2013-11-06 16:47:00,55.9,23.0,30.12,WNW,292,2.5,4.0,28,0.00,,,0.00,WUHU21623XXSP,2013-11-07 00:47:00,
2013-11-06 16:52:00,55.2,23.6,30.12,WNW,292,3.4,3.4,28,0.00,,,0.00,WUHU21623XXSP,2013-11-07 00:52:00,
2013-11-06 16:57:00,54.9,23.1,30.12,WNW,292,0.7,3.4,29,0.00,,,0.00,WUHU21623XXSP,2013-11-07 00:57:00,
2013-11-06 17:04:00,54.1,22.5,30.12,NW,315,3.8,3.8,29,0.00,,,0.00,WUHU21623XXSP,2013-11-07 01:04:00,
2013-11-06 17:10:00,53.4,22.8,30.12,WNW,292,3.1,3.8,30,0.00,,,0.00,WUHU21623XXSP,2013-11-07 01:10:00,
2013-11-06 17:19:00,52.9,22.4,30.13,NW,315,3.6,3.6,30,0.00,,,0.00,WUHU21623XXSP,2013-11-07 01:19:00,
2013-11-06 17:25:00,52.3,21.9,30.13,West,270,2.7,3.6,30,0.00,,,0.00,WUHU21623XXSP,2013-11-07 01:25:00,
2013-11-06 17:34:00,51.6,21.9,30.13,West,270,2.0,2.7,31,0.00,,,0.00,WUHU21623XXSP,2013-11-07 01:34:00,
2013-11-06 17:40:00,50.9,21.4,30.14,NW,315,2.0,2.0,31,0.00,,,0.00,WUHU21623XXSP,2013-11-07 01:40:00,
2013-11-06 17:47:00,50.7,21.8,30.14,WNW,292,4.5,4.5,32,0.00,,,0.00,WUHU21623XXSP,2013-11-07 01:47:00,
2013-11-06 17:58:00,50.2,21.3,30.14,WNW,292,3.8,3.8,32,0.00,,,0.00,WUHU21623XXSP,2013-11-07 01:58:00,
2013-11-06 18:04:00,49.8,21.0,30.14,WNW,292,2.0,3.8,32,0.00,,,0.00,WUHU21623XXSP,2013-11-07 02:04:00,
2013-11-06 18:13:00,49.6,21.5,30.14,NW,315,3.4,3.4,33,0.00,,,0.00,WUHU21623XXSP,2013-11-07 02:13:00,
2013-11-06 18:18:00,49.3,21.2,30.14,WNW,292,3.4,3.4,33,0.00,,,0.00,WUHU21623XXSP,2013-11-07 02:18:00,
2013-11-06 18:23:00,49.1,21.1,30.14,NE,45,0.0,3.4,33,0.00,,,0.00,WUHU21623XXSP,2013-11-07 02:23:00,
2013-11-06 18:30:00,48.7,20.8,30.15,NE,45,0.0,0.0,33,0.00,,,0.00,WUHU21623XXSP,2013-11-07 02:30:00,
2013-11-06 18:38:00,48.6,20.6,30.15,East,90,0.0,0.0,33,0.00,,,0.00,WUHU21623XXSP,2013-11-07 02:38:00,
2013-11-06 18:43:00,48.4,20.5,30.15,North,0,0.0,0.0,33,0.00,,,0.00,WUHU21623XXSP,2013-11-07 02:43:00,
2013-11-06 18:48:00,48.0,20.2,30.15,ESE,112,0.0,0.0,33,0.00,,,0.00,WUHU21623XXSP,2013-11-07 02:48:00,
2013-11-06 18:53:00,47.8,20.0,30.15,ESE,112,0.0,0.0,33,0.00,,,0.00,WUHU21623XXSP,2013-11-07 02:53:00,
2013-11-06 18:58:00,47.3,20.2,30.16,ESE,112,0.0,0.0,34,0.00,,,0.00,WUHU21623XXSP,2013-11-07 02:58:00,
2013-11-06 19:03:00,47.1,20.0,30.16,ENE,67,0.0,0.0,34,0.00,,,0.00,WUHU21623XXSP,2013-11-07 03:03:00,
2013-11-06 19:08:00,46.6,19.5,30.16,East,90,0.0,0.0,34,0.00,,,0.00,WUHU21623XXSP,2013-11-07 03:08:00,
2013-11-06 19:14:00,46.2,19.2,30.15,East,90,0.0,0.0,34,0.00,,,0.00,WUHU21623XXSP,2013-11-07 03:14:00,
2013-11-06 19:20:00,45.7,18.7,30.16,ESE,112,0.0,0.0,34,0.00,,,0.00,WUHU21623XXSP,2013-11-07 03:20:00,
2013-11-06 19:25:00,45.3,18.4,30.16,ESE,112,0.0,0.0,34,0.00,,,0.00,WUHU21623XXSP,2013-11-07 03:25:00,
2013-11-06 19:30:00,45.0,18.1,30.16,East,90,0.0,0.0,34,0.00,,,0.00,WUHU21623XXSP,2013-11-07 03:30:00,
2013-11-06 19:35:00,44.4,18.2,30.16,ESE,112,0.0,0.0,35,0.00,,,0.00,WUHU21623XXSP,2013-11-07 03:35:00,
2013-11-06 19:40:00,43.9,17.8,30.16,ESE,112,0.0,0.0,35,0.00,,,0.00,WUHU21623XXSP,2013-11-07 03:40:00,
2013-11-06 19:45:00,43.5,17.4,30.16,ESE,112,0.0,0.0,35,0.00,,,0.00,WUHU21623XXSP,2013-11-07 03:45:00,
2013-11-06 19:50:00,43.0,17.6,30.15,SE,135,0.0,0.0,36,0.00,,,0.00,WUHU21623XXSP,2013-11-07 03:50:00,
2013-11-06 19:55:00,42.4,17.1,30.16,SE,135,0.0,0.0,36,0.00,,,0.00,WUHU21623XXSP,2013-11-07 03:55:00,
2013-11-06 20:00:00,42.1,16.8,30.16,SE,135,0.0,0.0,36,0.00,,,0.00,WUHU21623XXSP,2013-11-07 04:00:00,
2013-11-06 20:06:00,41.7,16.5,30.16,SE,135,0.0,0.0,36,0.00,,,0.00,WUHU21623XXSP,2013-11-07 04:06:00,
2013-11-06 20:11:00,41.5,16.4,30.16,SE,135,0.0,0.0,36,0.00,,,0.00,WUHU21623XXSP,2013-11-07 04:11:00,
2013-11-06 20:23:00,40.8,16.4,30.16,SE,135,0.0,0.0,37,0.00,,,0.00,WUHU21623XXSP,2013-11-07 04:23:00,
2013-11-06 20:32:00,40.3,15.9,30.16,NE,45,0.0,0.0,37,0.00,,,0.00,WUHU21623XXSP,2013-11-07 04:32:00,
2013-11-06 20:38:00,39.9,16.2,30.16,NNE,22,0.0,0.0,38,0.00,,,0.00,WUHU21623XXSP,2013-11-07 04:38:00,
2013-11-06 20:47:00,39.6,15.9,30.16,WNW,292,0.0,0.0,38,0.00,,,0.00,WUHU21623XXSP,2013-11-07 04:47:00,
2013-11-06 20:52:00,39.4,15.7,30.16,NNW,337,0.0,0.0,38,0.00,,,0.00,WUHU21623XXSP,2013-11-07 04:52:00,
2013-11-06 20:57:00,39.0,15.4,30.16,NNW,337,0.0,0.0,38,0.00,,,0.00,WUHU21623XXSP,2013-11-07 04:57:00,
2013-11-06 21:01:00,39.0,15.4,30.16,ENE,67,0.0,0.0,38,0.00,,,0.00,WUHU21623XXSP,2013-11-07 05:01:00,
2013-11-06 21:06:00,38.8,15.9,30.16,NE,45,0.0,0.0,39,0.00,,,0.00,WUHU21623XXSP,2013-11-07 05:06:00,
2013-11-06 21:11:00,38.5,15.6,30.16,SSE,157,0.0,0.0,39,0.00,,,0.00,WUHU21623XXSP,2013-11-07 05:11:00,
2013-11-06 21:16:00,38.5,15.6,30.16,ENE,67,0.0,0.0,39,0.00,,,0.00,WUHU21623XXSP,2013-11-07 05:16:00,
2013-11-06 21:21:00,38.3,16.1,30.17,SE,135,0.0,0.0,40,0.00,,,0.00,WUHU21623XXSP,2013-11-07 05:21:00,
2013-11-06 21:27:00,37.9,15.7,30.17,ENE,67,0.0,0.0,40,0.00,,,0.00,WUHU21623XXSP,2013-11-07 05:27:00,
2013-11-06 21:32:00,37.8,15.7,30.17,ESE,112,0.0,0.0,41,0.00,,,0.00,WUHU21623XXSP,2013-11-07 05:32:00,
2013-11-06 21:37:00,37.8,16.1,30.17,ESE,112,0.0,0.0,41,0.00,,,0.00,WUHU21623XXSP,2013-11-07 05:37:00,
2013-11-06 21:42:00,37.6,15.9,30.17,ESE,112,0.0,0.0,41,0.00,,,0.00,WUHU21623XXSP,2013-11-07 05:42:00,
2013-11-06 21:51:00,37.2,15.6,30.17,East,90,0.0,0.0,41,0.00,,,0.00,WUHU21623XXSP,2013-11-07 05:51:00,
2013-11-06 21:57:00,37.2,16.1,30.17,SE,135,0.0,0.0,42,0.00,,,0.00,WUHU21623XXSP,2013-11-07 05:57:00,
2013-11-06 22:06:00,37.0,16.0,30.17,ESE,112,0.0,0.0,42,0.00,,,0.00,WUHU21623XXSP,2013-11-07 06:06:00,
2013-11-06 22:11:00,36.9,15.8,30.16,NE,45,0.0,0.0,42,0.00,,,0.00,WUHU21623XXSP,2013-11-07 06:11:00,
2013-11-06 22:18:00,36.7,15.7,30.17,NW,315,0.0,0.0,42,0.00,,,0.00,WUHU21623XXSP,2013-11-07 06:18:00,
2013-11-06 22:23:00,36.7,15.7,30.17,NW,315,0.0,0.0,42,0.00,,,0.00,WUHU21623XXSP,2013-11-07 06:23:00,
2013-11-06 22:33:00,36.3,15.3,30.16,NNE,22,0.0,0.0,42,0.00,,,0.00,WUHU21623XXSP,2013-11-07 06:33:00,
2013-11-06 22:40:00,36.3,15.3,30.16,North,0,0.0,0.0,42,0.00,,,0.00,WUHU21623XXSP,2013-11-07 06:40:00,
2013-11-06 22:45:00,36.3,15.3,30.16,North,0,0.0,0.0,42,0.00,,,0.00,WUHU21623XXSP,2013-11-07 06:45:00,
2013-11-06 22:51:00,36.3,15.9,30.16,South,180,0.0,0.0,43,0.00,,,0.00,WUHU21623XXSP,2013-11-07 06:51:00,
2013-11-06 22:56:00,36.3,15.9,30.16,ENE,67,0.0,0.0,43,0.00,,,0.00,WUHU21623XXSP,2013-11-07 06:56:00,
2013-11-06 23:01:00,36.1,15.9,30.16,ENE,67,0.0,0.0,43,0.00,,,0.00,WUHU21623XXSP,2013-11-07 07:01:00,
2013-11-06 23:06:00,36.1,15.7,30.16,WSW,247,0.0,0.0,43,0.00,,,0.00,WUHU21623XXSP,2013-11-07 07:06:00,
2013-11-06 23:11:00,36.0,16.1,30.15,SE,135,0.0,0.0,44,0.00,,,0.00,WUHU21623XXSP,2013-11-07 07:11:00,
2013-11-06 23:16:00,36.0,16.6,30.15,ESE,112,0.0,0.0,45,0.00,,,0.00,WUHU21623XXSP,2013-11-07 07:16:00,
2013-11-06 23:21:00,36.0,16.6,30.15,SE,135,0.0,0.0,45,0.00,,,0.00,WUHU21623XXSP,2013-11-07 07:21:00,
2013-11-06 23:26:00,35.8,16.6,30.15,SE,135,0.0,0.0,45,0.00,,,0.00,WUHU21623XXSP,2013-11-07 07:26:00,
2013-11-06 23:33:00,36.0,16.6,30.15,SW,225,0.0,0.0,45,0.00,,,0.00,WUHU21623XXSP,2013-11-07 07:33:00,
2013-11-06 23:38:00,35.8,16.4,30.16,SW,225,0.0,0.0,45,0.00,,,0.00,WUHU21623XXSP,2013-11-07 07:38:00,
2013-11-06 23:50:00,36.0,17.1,30.15,East,90,0.0,0.0,46,0.00,,,0.00,WUHU21623XXSP,2013-11-07 07:50:00,
2013-11-06 23:55:00,36.0,17.1,30.15,ESE,112,0.0,0.0,46,0.00,,,0.00,WUHU21623XXSP,2013-11-07 07:55:00,